Volver al catálogo

WILDFIRE 6

ActivoCienciaPO
NORAD 57763·PAYLOAD·🇺🇸 United States

Lanzado Sep 2, 2023 desde Vandenberg Space Force Base

Loading…

Próximos Pases (próximas 24 horas)

TLE

ActualizadoSource: Space-Track

Época: Sep 14, 2026, 01:49 UTC

1 57763U 23133G   26257.07581368  .00000054  00000-0  37106-4 0  9990
2 57763  80.9919 281.7434 0007285 133.9097 226.2663 13.85680865153320

Sigue WILDFIRE 6 en tiempo real con AllMySat

Download on the App Store